Home   Weather   Port Elizabeth   Past weeks

Flag for South Africa Past Weather in Port Elizabeth, South Africa — Yesterday and Last 2 Weeks

72 °F

Scattered clouds.

Feels Like: 75 °F
Forecast: 56 / 76 °F
Wind: 7 mph from Northeast

Location: Port Elizabeth Airport

Current Time: Oct 25, 2016 at 2:12:32 PM

Latest Report: Oct 25, 2016 at 1:00 PM

Visibility: N/A

Pressure: 30.04 "Hg

Humidity: 65%

Dew Point: 59 °F

Location of Port ElizabethLocation

Past Weather in Port Elizabeth — Graph


Port Elizabeth Temperature Yesterday

Maximum temperature yesterday: 70 °F (at 12:00 PM)
Minimum temperature yesterday: 63 °F (at 2:00 PM)
Average temperature yesterday: 64 °F

High & Low Weather Summary for the Past Weeks

High79 °F (Oct 10, 4:00 PM)100% (Oct 19, 9:00 PM)30.39 "Hg (Oct 19, 9:00 PM)
Low48 °F (Oct 18, 4:00 AM)37% (Oct 12, 12:00 PM)29.71 "Hg (Oct 20, 5:00 PM)
Average64 °F76%30.04 "Hg
* Reported Oct 10 1:00 PM — Oct 25 1:00 PM, Port Elizabeth, Weather by CustomWeather, © 2016

Note: Actual official high and low records may vary slightly from our data, if they occured in-between our weather recording intervals... More about our weather records


Port Elizabeth Weather History for the Previous 24 Hours

Scroll right to see more
Time TempWeatherWind HumidityBarometerVisibility
1:00 PM
Tue, Oct 25
72 °FScattered clouds.7 mph65%30.04 "HgN/A
12:00 PM70 °FScattered clouds.8 mph69%30.07 "HgN/A
11:00 AM70 °FBroken clouds.2 mph73%30.07 "HgN/A
10:00 AM68 °FBroken clouds.2 mph73%30.07 "HgN/A
9:00 AM66 °FPartly sunny.7 mph88%30.07 "HgN/A
8:00 AM66 °FPartly sunny.6 mph78%30.07 "HgN/A
7:51 AM66 °FPartly sunny.6 mph78%30.07 "HgN/A
7:00 AM63 °FPassing clouds.7 mph88%30.07 "HgN/A
6:00 AM59 °FPassing clouds.6 mph94%30.04 "HgN/A
5:00 AM59 °FClear.7 mph94%30.04 "Hg10 mi
2:00 AM63 °FPassing clouds.6 mph88%30.07 "HgN/A
1:00 AM61 °FPassing clouds.5 mph94%30.07 "HgN/A
12:00 AM61 °FPassing clouds.5 mph94%30.07 "HgN/A
11:00 PM
Mon, Oct 24
63 °FPassing clouds.8 mph94%30.07 "HgN/A
10:00 PM63 °FPartly cloudy.7 mph94%30.09 "Hg6 mi
9:00 PM63 °FPassing clouds.8 mph94%30.09 "Hg4 mi
8:50 PM63 °FPassing clouds.8 mph94%30.09 "Hg4 mi
8:00 PM63 °FPassing clouds.9 mph94%30.07 "Hg4 mi
7:57 PM63 °FPassing clouds.9 mph94%30.07 "Hg4 mi
7:00 PM63 °FPassing clouds.8 mph94%30.04 "Hg4 mi
6:57 PM63 °FPassing clouds.8 mph94%30.04 "Hg4 mi
6:00 PM64 °FBroken clouds.12 mph88%30.01 "HgN/A
5:47 PM64 °FBroken clouds.12 mph94%30.01 "HgN/A
5:00 PM64 °FPartly sunny.9 mph94%30.01 "HgN/A
4:57 PM64 °FPartly sunny.9 mph94%30.01 "HgN/A
4:00 PM64 °FScattered clouds.13 mph94%30.01 "Hg6 mi
3:00 PM63 °FDrizzle. More clouds than sun.15 mph94%30.01 "Hg5 mi
2:00 PM63 °FLight rain. Mostly cloudy.9 mph94%30.01 "Hg3 mi
Weather by CustomWeather, © 2016

See weather overviewHow to use our weather pages